Simultaneous Nadir Overpasses (SNOs) Predictions

Prediction of SNOs between LANDSAT-8 and METOP-A Satellite Orbit:

Table of predicted SNOs for the next 14.0 days since TLE Epoch: 1/18/2020
Index Date (LANDSAT-8) Time (LANDSAT-8) Lat,Lon (LANDSAT-8) SZA (LANDSAT-8 ) Date (METOP-A) Time (METOP-A) Lat,Lon (METOP-A) SZA (METOP-A ) Distance(km) Time Diff (sec)
1 01/19/2020 08:08:22 -81.48, -75.80 75.88 01/19/2020 08:07:27 -81.49, -75.91 75.91 1.82 55
2 01/19/2020 08:57:48 81.48, 91.93 104.13 01/19/2020 08:58:06 81.48, 92.09 104.15 2.70 18
3 01/22/2020 03:42:36 -81.49, -9.17 76.49 01/22/2020 03:41:49 -81.48, -9.24 76.52 1.25 47
4 01/22/2020 04:32:02 81.49, 158.53 103.52 01/22/2020 04:32:29 81.48, 158.34 103.50 3.36 27
5 01/24/2020 23:16:51 -81.48, 57.03 77.19 01/24/2020 23:16:12 -81.48, 57.03 77.20 0.59 39
6 01/25/2020 00:06:17 81.48,-135.30 102.81 01/25/2020 00:06:52 81.48,-135.42 102.82 1.98 35
7 01/27/2020 18:51:04 -81.48, 123.59 77.89 01/27/2020 18:50:33 -81.48, 123.68 77.90 1.52 31
8 01/27/2020 19:40:30 81.48, -68.76 102.11 01/27/2020 19:41:13 81.48, -68.78 102.12 0.60 43
9 01/30/2020 14:25:18 -81.49,-169.89 78.64 01/30/2020 14:24:56 -81.48,-170.08 78.67 3.13 22




NCC Satellite Simultaneous Nadir Overpasses (SNOs) Prediction Service
